Location: Winthrop
(48.4780°N, 120.1850°W)
Time: 10:26:05
(UTC-07:00)

Vanguard 3 - Pass Details

Date: 08 February 2023
Orbit: 508 x 3249 km, 33.4° (Epoch: 27 March)

Event Time Altitude Azimuth Distance (km) Brightness Sun altitude
Rises 19:51:33 0° 251° (WSW) 4,135 11.7 -26.9°
Reaches altitude 10° 19:54:10 10° 242° (WSW) 3,476 11.0 -27.4°
Maximum altitude 20:02:29 36° 180° (S) 2,807 9.7 -28.7°
Enters shadow 20:06:58 30° 147° (SSE) 3,484 9.9 -29.5°
